STARLINK-1734, 46325

Orbit data source: Space-Track

STARLINK-1734, 46325 is a payload satellite owned by SpaceX/Seattle (US) in LEO that was launched on Thu, 03 Sep 2020 UTC via an FALCON 9 launch vehicle from the Air Force Eastern Test Range (AFETR). Payload-class satellites include a variety of spacecraft equipped with specific instruments for various scientific and technological missions. These include communications satellites like Starlink; space stations such as the ISS; scientific satellites like the Hubble; Earth observation satellites from companies like Planet Labs, Umbra, and HawkEye 360; GPS; miniature CubeSats for education and research; and military/defense satellites.

Loading next visibility...
Identifier
46325, 2020-062A
Orbit
LEO
Last TLE update
12 hours ago
Origin
Manufacturer
SpaceX/Seattle
Mission
Partially operational Commercial Communications
Bus & Motor
STARLINK, Unknown motor
Mass
260 kg wet, ~248 kg dry
Launch date (UTC)
2020-09-03 (5 years ago)
Launch vehicle
FALCON 9
Launch site
Air Force Eastern Test Range (AFETR)
Object type
Payload
Rocket body
Debris
Shape & HBR
Box + 1 Pan, 4.4 m
Radar Cross Section
13.562 m², Large (>1 m²)

Expand to show TLE details & history

TLE from 12 hours ago
0 STARLINK-1734
1 46325U 20062A   25199.49439657  .00057273  00000-0  15527-2 0  9999
2 46325  53.0345 281.5328 0003402 138.5910 221.5351 15.37105345270559
Epoch: 2025-07-18T11:51Z
TLE epoch observation values (Epoch: 2025-07-18T11:51:55.863Z)
Latitude
0.00001°
Longitude
167.005°
Altitude
457.303 km
Speed
7.638 km/s
True Right ascension
18h 46m 07s
True Declination
0° 00' 00"
Sunlit
Object was in full shadow at epoch
Visualization orbit readout
Latitude
-46.69687°
Longitude
37.22786°
Altitude
471.006 km
Speed
7.63 km/s
Apparent Right ascension
05h 09m 27s
Apparent Declination
-70° 54' 26"
Sunlit
Object is in daylight
Visualization observer readout
Local Sidereal Time
12:38:44
Azimuth
205.13° SW
Elevation
-44.558°
Doppler factor
1
Orbital elements
Apogee altitude
457.276 km
Perigee altitude
452.627 km
Semi-major axis
6,833.089 km
Eccentricity
0.00034
Inclination
53.0345°
RAAN
281.5328°
Arg. of periapsis
138.591°
True anomaly
221.50926°
Mean anomaly
221.5351°
Eccentric anomaly
221.52218°
Mean motion
3.84253 °/min
Orbital period
93.69 mins
BSTAR
0.0015527
Loading maneuver chart data...
Loading SW <> Apogee altitude chart data...
Loading historical data...
Loading historical data...
Loading historical data...
Loading historical data...
Loading historical data...
Loading historical data...
Loading historical data...
|